TimeCDT,TemperatureF,Dew PointF,Humidity,Sea Level PressureIn,VisibilityMPH,Wind Direction,Wind SpeedMPH,Gust SpeedMPH,PrecipitationIn,Events,Conditions,WindDirDegrees,DateUTC
12:35 AM,75.2,71.6,89,29.91,10.0,South,3.5,-,N/A,,Scattered Clouds,170,2013-05-21 05:35:00
12:53 AM,75.9,72.0,87,29.92,10.0,South,3.5,-,N/A,,Mostly Cloudy,170,2013-05-21 05:53:00
1:53 AM,75.0,72.0,90,29.91,10.0,SSE,3.5,-,N/A,,Clear,150,2013-05-21 06:53:00
2:53 AM,73.9,73.0,97,29.88,9.0,SSE,6.9,-,N/A,,Clear,150,2013-05-21 07:53:00
3:40 AM,75.2,73.4,94,29.88,10.0,South,4.6,-,N/A,,Mostly Cloudy,170,2013-05-21 08:40:00
3:53 AM,73.9,73.0,97,29.89,9.0,South,3.5,-,N/A,,Mostly Cloudy,170,2013-05-21 08:53:00
4:03 AM,73.4,71.6,94,29.88,9.0,South,3.5,-,N/A,,Partly Cloudy,170,2013-05-21 09:03:00
4:53 AM,75.0,72.0,90,29.89,10.0,SSE,5.8,-,N/A,,Clear,160,2013-05-21 09:53:00
5:53 AM,75.0,73.0,94,29.89,10.0,SSE,4.6,-,N/A,,Partly Cloudy,160,2013-05-21 10:53:00
6:11 AM,75.2,73.4,94,29.88,10.0,SSE,5.8,-,N/A,,Mostly Cloudy,160,2013-05-21 11:11:00
6:20 AM,75.2,73.4,94,29.88,9.0,SSE,5.8,-,N/A,,Scattered Clouds,160,2013-05-21 11:20:00
6:53 AM,73.9,73.0,97,29.90,7.0,SSE,4.6,-,N/A,,Scattered Clouds,160,2013-05-21 11:53:00
7:01 AM,75.2,73.4,94,29.89,8.0,SSE,5.8,-,N/A,,Mostly Cloudy,160,2013-05-21 12:01:00
7:53 AM,77.0,73.9,90,29.89,9.0,South,4.6,-,N/A,,Overcast,170,2013-05-21 12:53:00
8:53 AM,79.0,73.0,82,29.90,10.0,South,6.9,-,N/A,,Overcast,180,2013-05-21 13:53:00
9:31 AM,82.4,73.4,74,29.90,10.0,South,11.5,-,N/A,,Overcast,180,2013-05-21 14:31:00
9:43 AM,80.6,73.4,79,29.90,10.0,SSE,8.1,17.3,N/A,,Overcast,160,2013-05-21 14:43:00
9:53 AM,81.0,73.0,77,29.91,10.0,South,9.2,-,N/A,,Overcast,170,2013-05-21 14:53:00
10:00 AM,82.4,73.4,74,29.90,10.0,South,8.1,-,N/A,,Overcast,180,2013-05-21 15:00:00
10:18 AM,80.6,71.6,74,29.90,10.0,SSE,10.4,-,N/A,,Overcast,160,2013-05-21 15:18:00
10:53 AM,82.9,73.0,72,29.90,10.0,SSE,11.5,-,N/A,,Overcast,160,2013-05-21 15:53:00
11:53 AM,86.0,72.0,63,29.89,10.0,South,12.7,23.0,N/A,,Overcast,180,2013-05-21 16:53:00
12:00 PM,86.0,71.6,62,29.88,10.0,South,13.8,20.7,N/A,,Mostly Cloudy,170,2013-05-21 17:00:00
12:53 PM,87.1,71.1,59,29.88,10.0,South,15.0,23.0,0.00,,Scattered Clouds,170,2013-05-21 17:53:00
1:53 PM,88.0,71.1,57,29.86,10.0,South,15.0,21.9,N/A,,Partly Cloudy,170,2013-05-21 18:53:00
2:53 PM,90.0,71.1,54,29.84,10.0,South,16.1,20.7,N/A,,Scattered Clouds,190,2013-05-21 19:53:00
3:53 PM,88.0,70.0,55,29.81,10.0,South,15.0,21.9,N/A,,Partly Cloudy,180,2013-05-21 20:53:00
4:53 PM,86.0,70.0,59,29.77,10.0,South,12.7,19.6,N/A,,Mostly Cloudy,170,2013-05-21 21:53:00
5:53 PM,88.0,69.1,53,29.75,10.0,SSW,16.1,24.2,N/A,,Clear,200,2013-05-21 22:53:00
6:53 PM,84.9,72.0,65,29.77,10.0,South,9.2,-,N/A,,Partly Cloudy,180,2013-05-21 23:53:00
7:53 PM,82.0,72.0,71,29.80,10.0,SSW,13.8,21.9,N/A,,Partly Cloudy,200,2013-05-22 00:53:00
8:53 PM,81.0,72.0,74,29.85,10.0,SW,9.2,-,N/A,,Scattered Clouds,220,2013-05-22 01:53:00
9:53 PM,80.1,71.1,74,29.86,10.0,WSW,4.6,-,N/A,,Overcast,240,2013-05-22 02:53:00
10:05 PM,80.6,71.6,74,29.87,10.0,WNW,10.4,16.1,N/A,Thunderstorm,Overcast,300,2013-05-22 03:05:00
10:20 PM,71.6,64.4,78,29.87,10.0,North,15.0,27.6,N/A,Thunderstorm,Overcast,350,2013-05-22 03:20:00
10:49 PM,68.0,66.2,94,29.90,1.5,North,10.4,-,0.06,Rain-Thunderstorm,Heavy Thunderstorms and Rain,10,2013-05-22 03:49:00
10:53 PM,66.9,66.0,97,29.91,1.2,NE,4.6,-,0.11,Rain-Thunderstorm,Heavy Thunderstorms and Rain,40,2013-05-22 03:53:00
11:11 PM,66.2,66.2,100,29.90,1.0,NNW,13.8,18.4,0.21,Rain-Thunderstorm,Heavy Thunderstorms and Rain,340,2013-05-22 04:11:00
11:22 PM,66.2,66.2,100,29.91,1.5,East,9.2,-,0.38,Rain-Thunderstorm,Heavy Thunderstorms and Rain,90,2013-05-22 04:22:00
11:29 PM,66.2,66.2,100,29.90,3.0,ENE,8.1,-,0.49,Rain-Thunderstorm,Heavy Thunderstorms and Rain,60,2013-05-22 04:29:00
11:39 PM,66.2,66.2,100,29.89,10.0,NE,5.8,-,0.64,Rain-Thunderstorm,Light Thunderstorms and Rain,50,2013-05-22 04:39:00
11:50 PM,66.2,66.2,100,29.90,10.0,NNW,5.8,-,0.79,Rain-Thunderstorm,Light Thunderstorms and Rain,340,2013-05-22 04:50:00
11:53 PM,66.9,66.9,100,29.91,10.0,North,6.9,-,0.83,Rain-Thunderstorm,Light Thunderstorms and Rain,360,2013-05-22 04:53:00